This is the latest recevied weather packets stored in our database for station/object IZ8NVY-10. If no packets are shown the sender has not sent any weather packets the latest 10 day(s).
| Time | Temp. | Humidity | Pressure | Rain* | Wind** | Luminosity | Snow |
|---|---|---|---|---|---|---|---|
| 1777788795 | 18.33° C | 50% | 984.2 hPa | - | - | - | - |
| 1777785196 | 12.22° C | 52% | 984.2 hPa | - | - | - | - |
| 1777781595 | 10° C | 52% | 984 hPa | - | - | - | - |
| 1777777996 | 10.56° C | 50% | 983.8 hPa | - | - | - | - |
| 1777774395 | 11.11° C | 50% | 984 hPa | - | - | - | - |
| 1777770794 | 11.11° C | 48% | 984.5 hPa | - | - | - | - |
| 1777767193 | 11.67° C | 48% | 984.7 hPa | - | - | - | - |
| 1777763592 | 11.67° C | 48% | 985.6 hPa | - | - | - | - |
| 1777759992 | 11.67° C | 49% | 986 hPa | - | - | - | - |
| 1777756394 | 12.78° C | 48% | 986 hPa | - | - | - | - |
| 1777752794 | 13.33° C | 44% | 985.7 hPa | - | - | - | - |
| 1777749193 | 15.56° C | 38% | 985.1 hPa | - | - | - | - |
| 1777745592 | 18.33° C | 30% | 984.2 hPa | - | - | - | - |
| 1777741993 | 25° C | 25% | 983.9 hPa | - | - | - | - |
| 1777738392 | 25.56° C | 25% | 983.9 hPa | - | - | - | - |
| 1777734797 | 27.78° C | 24% | 983.9 hPa | - | - | - | - |
| 1777731191 | 25.56° C | 25% | 984.3 hPa | - | - | - | - |
| 1777727590 | 27.22° C | 25% | 984.7 hPa | - | - | - | - |
| 1777723989 | 23.33° C | 27% | 985 hPa | - | - | - | - |
| 1777720389 | 22.78° C | 30% | 985 hPa | - | - | - | - |
| 1777716787 | 23.33° C | 28% | 985.3 hPa | - | - | - | - |
| 1777713191 | 23.89° C | 29% | 985.2 hPa | - | - | - | - |
| 1777705992 | 22.22° C | 35% | 985.6 hPa | - | - | - | - |
| 1777702388 | 16.11° C | 50% | 985.9 hPa | - | - | - | - |
| 1777698787 | 12.78° C | 55% | 985.9 hPa | - | - | - | - |
* Rain since midnight (hover to see other rain measurements)
** Current wind speed in m/s (hover to see current wind gust speed)